CW4141 Weather Reports


Display with metric or nautical units.
time (UTC)temp
F
wind
direction
speed
MPH
gust
MPH
rain 1hr
in
rain 24hr
in
rain mn
in
humidity
%
barometer
mb
20260905223106 91 0 3.0 7.0 0.00 0.00 0.00 28 1013.8
20260905223041 91 186 2.0 7.0 0.00 0.00 0.00 28 1009.7
20260905221607 92 175 1.0 6.0 0.00 0.00 0.00 29 1013.9
20260905221539 92 175 0.0 5.0 0.00 0.00 0.00 30 1009.8
20260905220105 93 223 1.0 6.0 0.00 0.00 0.00 27 1014.0
20260905220038 93 223 1.0 6.0 0.00 0.00 0.00 27 1010.2
20260905214557 92 0 1.0 5.0 0.00 0.00 0.00 28 1014.2
20260905214537 92 145 1.0 5.0 0.00 0.00 0.00 28 1010.3
20260905213106 92 203 1.0 9.0 0.00 0.00 0.00 24 1014.3
20260905213035 92 203 1.0 9.0 0.00 0.00 0.00 24 1010.5
20260905211601 93 146 2.0 7.0 0.00 0.00 0.00 22 1014.4
20260905211535 94 145 1.0 6.0 0.00 0.00 0.00 22 1010.5
20260905210033 94 126 2.0 7.0 0.00 0.00 0.00 22 1010.7
20260905204556 95 172 1.0 5.0 0.00 0.00 0.00 23 1014.6
20260905204533 95 167 0.0 5.0 0.00 0.00 0.00 23 1010.8
20260905203105 94 148 3.0 9.0 0.00 0.00 0.00 20 1014.7
20260905203032 94 135 3.0 7.0 0.00 0.00 0.00 21 1010.9
20260905201613 94 247 1.0 5.0 0.00 0.00 0.00 17 1014.8
20260905201531 94 247 2.0 5.0 0.00 0.00 0.00 18 1011.0
20260905200033 94 115 1.0 5.0 0.00 0.00 0.00 15 1011.4
20260905194607 93 138 2.0 6.0 0.00 0.00 0.00 12 1015.1
20260905194526 93 138 3.0 6.0 0.00 0.00 0.00 13 1011.6
20260905193104 93 209 2.0 8.0 0.00 0.00 0.00 14 1015.3
20260905193027 93 209 1.0 7.0 0.00 0.00 0.00 14 1011.7
20260905191610 92 221 2.0 6.0 0.00 0.00 0.00 15 1015.5
20260905191526 92 221 2.0 5.0 0.00 0.00 0.00 15 1011.8
20260905190132 91 0 0.0 7.0 0.00 0.00 0.00 17 1015.6
20260905190029 91 174 0.0 6.0 0.00 0.00 0.00 18 1012.1
20260905184620 89 0 1.0 6.0 0.00 0.00 0.00 17 1015.5
20260905184521 89 144 2.0 6.0 0.00 0.00 0.00 18 1012.1
20260905183109 88 195 0.0 3.0 0.00 0.00 0.00 19 1015.7
20260905183010 87 195 0.0 3.0 0.00 0.00 0.00 20 1012.1
20260905181603 87 195 0.0 2.0 0.00 0.00 0.00 21 1015.9
20260905181507 87 195 0.0 2.0 0.00 0.00 0.00 21 1012.4
20260905180100 86 0 0.0 4.0 0.00 0.00 0.00 22 1015.9
20260905180007 86 195 0.0 4.0 0.00 0.00 0.00 22 1012.3
20260905174600 84 195 0.0 2.0 0.00 0.00 0.00 25 1012.2
20260905174559 84 0 0.0 2.0 0.00 0.00 0.00 24 1015.8
20260905173109 83 0 0.0 3.0 0.00 0.00 0.00 24 1015.7
20260905173057 83 195 0.0 2.0 0.00 0.00 0.00 25 1012.2
20260905171603 82 0 0.0 3.0 0.00 0.00 0.00 24 1015.8
20260905171555 83 195 0.0 3.0 0.00 0.00 0.00 25 1012.2
20260905170114 80 0 0.0 2.0 0.00 0.00 0.00 32 1015.7
20260905170052 80 195 0.0 1.0 0.00 0.00 0.00 32 1012.2
20260905164559 79 0 0.0 2.0 0.00 0.00 0.00 36 1015.9
20260905164546 79 195 0.0 2.0 0.00 0.00 0.00 36 1012.2
20260905163052 77 0 0.0 1.0 0.00 0.00 0.00 37 1015.8
20260905163044 77 195 0.0 1.0 0.00 0.00 0.00 38 1012.2
20260905161604 74 0 0.0 0.0 0.00 0.00 0.00 42 1015.8
20260905161537 74 195 0.0 0.0 0.00 0.00 0.00 45 1012.2
20260905160100 70 0 0.0 0.0 0.00 0.00 0.00 47 1015.8
20260905160034 70 195 0.0 0.0 0.00 0.00 0.00 48 1012.2
20260905154558 66 0 0.0 0.0 0.00 0.00 0.00 53 1015.6
20260905154528 66 195 0.0 0.0 0.00 0.00 0.00 54 1012.2
20260905153056 62 0 0.0 0.0 0.00 0.00 0.00 57 1015.6
20260905153032 62 195 0.0 0.0 0.00 0.00 0.00 59 1012.3
20260905151603 59 0 0.0 0.0 0.00 0.00 0.00 63 1015.5
20260905151521 59 195 0.0 0.0 0.00 0.00 0.00 63 1012.2
20260905150058 56 0 0.0 0.0 0.00 0.00 0.00 65 1015.5
20260905150020 56 195 0.0 0.0 0.00 0.00 0.00 66 1012.0
20260905144556 55 0 0.0 0.0 0.00 0.00 0.00 68 1015.4
20260905144524 55 195 0.0 0.0 0.00 0.00 0.00 69 1011.8
20260905143053 54 0 0.0 0.0 0.00 0.00 0.00 71 1015.2
20260905143017 54 195 0.0 0.0 0.00 0.00 0.00 71 1011.7
20260905141623 54 0 0.0 0.0 0.00 0.00 0.00 70 1015.0
20260905141515 54 195 0.0 0.0 0.00 0.00 0.00 71 1011.6
20260905140058 54 0 0.0 0.0 0.00 0.00 0.00 68 1015.1
20260905140014 54 195 0.0 0.0 0.00 0.00 0.00 69 1011.3
20260905134603 54 0 0.0 0.0 0.00 0.00 0.00 68 1014.7
20260905134511 54 195 0.0 0.0 0.00 0.00 0.00 68 1011.1
20260905133059 54 0 0.0 0.0 0.00 0.00 0.00 68 1014.5
20260905133012 54 195 0.0 0.0 0.00 0.00 0.00 68 1011.2
20260905131629 55 0 0.0 0.0 0.00 0.00 0.00 68 1014.5
20260905131508 55 195 0.0 0.0 0.00 0.00 0.00 68 1011.1
20260905130101 55 0 0.0 0.0 0.00 0.00 0.00 68 1014.6
20260905130009 55 195 0.0 0.0 0.00 0.00 0.00 68 1011.1
20260905124558 55 0 0.0 0.0 0.00 0.00 0.00 67 1014.7
20260905124514 55 195 0.0 0.0 0.00 0.00 0.00 68 1011.1
20260905123111 55 0 0.0 0.0 0.00 0.00 0.00 66 1014.5
20260905123004 55 195 0.0 0.0 0.00 0.00 0.00 67 1011.0
20260905121558 56 0 0.0 0.0 0.00 0.00 0.00 67 1014.3
20260905121502 56 195 0.0 0.0 0.00 0.00 0.00 67 1010.8
20260905120057 56 0 0.0 0.0 0.00 0.00 0.00 66 1014.4
20260905120000 56 195 0.0 0.0 0.00 0.00 0.00 66 1011.0
20260905114559 56 195 0.0 0.0 0.00 0.00 0.00 66 1010.9
20260905114555 56 0 0.0 0.0 0.00 0.00 0.00 65 1014.5
20260905113110 56 0 0.0 0.0 0.00 0.00 0.00 65 1014.4
20260905113059 56 195 0.0 0.0 0.00 0.00 0.00 65 1010.9
20260905111602 56 0 0.0 0.0 0.00 0.00 0.00 65 1014.6
20260905111557 56 195 0.0 0.0 0.00 0.00 0.00 65 1011.0
20260905110059 57 195 0.0 0.0 0.00 0.00 0.00 65 1011.0
20260905110055 57 0 0.0 0.0 0.00 0.00 0.00 65 1014.7
20260905104600 57 0 0.0 0.0 0.00 0.00 0.00 64 1014.7
20260905104557 57 195 0.0 0.0 0.00 0.00 0.00 65 1011.1
20260905103105 57 0 0.0 0.0 0.00 0.00 0.00 62 1014.8
20260905103054 57 195 0.0 0.0 0.00 0.00 0.00 63 1011.1
20260905101622 57 0 0.0 0.0 0.00 0.00 0.00 61 1014.9
20260905101551 57 195 0.0 0.0 0.00 0.00 0.00 62 1011.1
20260905100110 58 195 0.0 0.0 0.00 0.00 0.00 61 1011.1
20260905100059 58 0 0.0 0.0 0.00 0.00 0.00 60 1014.7
20260905094604 58 0 0.0 0.0 0.00 0.00 0.00 59 1014.8
20260905094549 58 195 0.0 0.0 0.00 0.00 0.00 59 1011.1
20260905093103 58 0 0.0 0.0 0.00 0.00 0.00 58 1014.7
20260905093047 58 195 0.0 0.0 0.00 0.00 0.00 58 1011.2
20260905091616 58 0 0.0 0.0 0.00 0.00 0.00 56 1014.9
20260905091545 58 195 0.0 0.0 0.00 0.00 0.00 57 1011.2
20260905090103 59 195 0.0 0.0 0.00 0.00 0.00 56 1011.2
20260905090056 59 0 0.0 0.0 0.00 0.00 0.00 55 1014.8
20260905084614 59 0 0.0 0.0 0.00 0.00 0.00 56 1014.7
20260905084542 59 195 0.0 0.0 0.00 0.00 0.00 57 1011.3
20260905083101 60 0 0.0 0.0 0.00 0.00 0.00 56 1015.0
20260905083047 60 195 0.0 0.0 0.00 0.00 0.00 56 1011.4
20260905081602 60 0 0.0 0.0 0.00 0.00 0.00 53 1015.1
20260905081547 60 195 0.0 0.0 0.00 0.00 0.00 54 1011.7
20260905080056 60 0 0.0 0.0 0.00 0.00 0.00 52 1015.2
20260905080044 60 195 0.0 0.0 0.00 0.00 0.00 52 1011.7
20260905074557 61 0 0.0 0.0 0.00 0.00 0.00 53 1015.3
20260905074534 61 195 0.0 0.0 0.00 0.00 0.00 54 1011.7
20260905073100 61 0 0.0 0.0 0.00 0.00 0.00 53 1015.4
20260905073036 61 195 0.0 0.0 0.00 0.00 0.00 53 1011.7
20260905071601 62 0 0.0 0.0 0.00 0.00 0.00 48 1015.3
20260905071529 62 195 0.0 0.0 0.00 0.00 0.00 49 1011.7
20260905070106 62 0 0.0 0.0 0.00 0.00 0.00 47 1015.1
20260905070031 62 195 0.0 0.0 0.00 0.00 0.00 47 1011.6
20260905064550 63 0 0.0 0.0 0.00 0.00 0.00 46 1015.1
20260905064528 63 195 0.0 0.0 0.00 0.00 0.00 46 1011.3
20260905063059 63 0 0.0 0.0 0.00 0.00 0.00 44 1015.1
20260905063028 63 195 0.0 0.0 0.00 0.00 0.00 44 1011.4
20260905061607 64 0 0.0 0.0 0.00 0.00 0.00 43 1015.1
20260905061526 64 195 0.0 0.0 0.00 0.00 0.00 43 1011.3
20260905060057 64 0 0.0 0.0 0.00 0.00 0.00 40 1015.0
20260905060038 64 195 0.0 0.0 0.00 0.00 0.00 40 1011.2
20260905054555 65 0 0.0 0.0 0.00 0.00 0.00 39 1015.0
20260905054536 65 195 0.0 0.0 0.00 0.00 0.00 39 1011.2
20260905053111 66 0 0.0 0.0 0.00 0.00 0.00 39 1015.1
20260905053029 66 195 0.0 0.0 0.00 0.00 0.00 40 1011.2
20260905051558 67 0 0.0 0.0 0.00 0.00 0.00 43 1014.9
20260905051530 67 195 0.0 0.0 0.00 0.00 0.00 43 1011.2
20260905050059 67 0 0.0 0.0 0.00 0.00 0.00 42 1014.8
20260905050025 67 195 0.0 0.0 0.00 0.00 0.00 43 1011.2
20260905044555 68 0 0.0 0.0 0.00 0.00 0.00 44 1014.7
20260905044534 68 195 0.0 0.0 0.00 0.00 0.00 45 1011.1
20260905043100 69 0 0.0 0.0 0.00 0.00 0.00 45 1014.5
20260905043025 69 195 0.0 0.0 0.00 0.00 0.00 46 1011.0
20260905041558 70 0 0.0 0.0 0.00 0.00 0.00 44 1014.5
20260905041523 70 195 0.0 0.0 0.00 0.00 0.00 44 1011.0
20260905040105 70 0 0.0 2.0 0.00 0.00 0.00 43 1014.6
20260905040022 70 195 0.0 1.0 0.00 0.00 0.00 43 1010.8
20260905034602 71 0 0.0 2.0 0.00 0.00 0.00 39 1014.3
20260905034522 71 195 0.0 2.0 0.00 0.00 0.00 39 1010.6
20260905033101 72 195 0.0 4.0 0.00 0.00 0.00 35 1014.0
20260905033021 72 195 0.0 4.0 0.00 0.00 0.00 35 1010.5
20260905031600 73 194 0.0 3.0 0.00 0.00 0.00 25 1014.1
20260905031519 73 194 1.0 3.0 0.00 0.00 0.00 25 1010.3
20260905030106 73 0 0.0 3.0 0.00 0.00 0.00 23 1013.8
20260905030018 73 194 0.0 2.0 0.00 0.00 0.00 24 1010.2
20260905024640 74 0 0.0 3.0 0.00 0.00 0.00 24 1013.6
20260905024518 74 194 0.0 3.0 0.00 0.00 0.00 24 1010.1
20260905023105 75 0 0.0 3.0 0.00 0.00 0.00 24 1013.5
20260905023020 75 195 0.0 2.0 0.00 0.00 0.00 24 1010.1
20260905021557 76 196 0.0 5.0 0.00 0.00 0.00 23 1013.4
20260905021517 76 196 0.0 4.0 0.00 0.00 0.00 24 1009.9
20260905020056 77 170 1.0 5.0 0.00 0.00 0.00 21 1013.4
20260905020017 77 171 1.0 5.0 0.00 0.00 0.00 22 1009.9
20260905014557 78 226 1.0 6.0 0.00 0.00 0.00 21 1013.4
20260905014516 78 225 2.0 6.0 0.00 0.00 0.00 21 1010.0
20260905013059 79 221 2.0 7.0 0.00 0.00 0.00 19 1013.4
20260905013015 79 145 2.0 7.0 0.00 0.00 0.00 20 1010.0
20260905011601 80 143 1.0 7.0 0.00 0.00 0.00 20 1013.5
20260905011516 80 137 1.0 5.0 0.00 0.00 0.00 20 1010.0
20260905010100 80 194 2.0 5.0 0.00 0.00 0.00 19 1013.4
20260905010013 80 213 1.0 5.0 0.00 0.00 0.00 20 1010.0
20260905004601 81 180 1.0 7.0 0.00 0.00 0.00 20 1013.5
20260905004515 81 179 1.0 7.0 0.00 0.00 0.00 20 1010.0
20260905003100 81 211 2.0 8.0 0.00 0.00 0.00 19 1013.5
20260905003026 81 223 2.0 7.0 0.00 0.00 0.00 20 1009.9
20260905001600 82 214 2.0 7.0 0.00 0.00 0.00 19 1013.4
20260905001512 82 214 1.0 7.0 0.00 0.00 0.00 19 1009.8
20260905000058 83 164 2.0 7.0 0.00 0.00 0.00 22 1013.2
20260905000013 83 165 2.0 7.0 0.00 0.00 0.00 23 1009.6
20260904234556 84 0 1.0 8.0 0.00 0.00 0.00 21 1013.3
20260904234511 84 202 1.0 8.0 0.00 0.00 0.00 21 1009.5
20260904233104 84 209 1.0 6.0 0.00 0.00 0.00 23 1013.3
20260904233009 84 208 1.0 6.0 0.00 0.00 0.00 24 1009.6
20260904231557 85 212 2.0 7.0 0.00 0.00 0.00 24 1013.3
20260904231512 85 212 3.0 7.0 0.00 0.00 0.00 25 1009.6
20260904230058 86 195 1.0 9.0 0.00 0.00 0.00 26 1013.2
20260904230016 86 194 1.0 9.0 0.00 0.00 0.00 26 1009.6
20260904224558 86 239 1.0 8.0 0.00 0.00 0.00 28 1013.3